Flag for Canada Weather past 2 weeks in East Hants, Nova Scotia, Canada

64 °F

Partly sunny.

Feels Like: 64 °F
Forecast: 48 / 61 °F
Wind: 7 mph from Southwest

Location: Halifax International Airport

Current Time: Oct 7, 2015 at 2:39:50 PM

Latest Report: Oct 7, 2015 at 2:00 PM

Visibility: 15 mi

Pressure: 29.79 "Hg

Humidity: 64%

Dew point: 52 °F

Location of East HantsLocation

Historic Weather in East Hants — Graph


East Hants temperature yesterday

Maximum temperature yesterday: 59 °F (at 1:00 PM)
Minimum temperature yesterday: 50 °F (at 3:00 AM)
Average temperature yesterday: 54 °F

Past Weeks' High & Low Weather Summary

High75 °F (Sep 29, 3:00 PM)100% (Sep 23, 3:00 AM)30.49 "Hg (Sep 23, 3:00 AM)
Low36 °F (Oct 4, 5:00 AM)35% (Sep 27, 4:00 PM)29.80 "Hg (Oct 7, 5:00 AM)
Average55 °F82%30.22 "Hg
* Reported Sep 22 1:00 PM — Oct 7 1:00 PM, East Hants, Weather by CustomWeather, © 2015

Note: Actual official high and low records may vary slightly from our data, if they occured in-between our weather recording intervals... More about our weather records


East Hants weather history for previous 24 hours

Time TempWeatherWind HumidityBarometerVisibility
1:00 PM
Wed, Oct 7
63 °FScattered clouds.3 mph64%29.80 "Hg15 mi
12:00 PM57 °FPartly sunny.3 mph82%29.82 "Hg15 mi
11:00 AM54 °FScattered clouds.3 mph94%29.83 "Hg15 mi
10:48 AM54 °FScattered clouds.3 mph94%29.83 "Hg1 mi
10:00 AM52 °FCool.3 mph100%29.84 "Hg1 mi
9:00 AM50 °FFog.2 mph100%29.84 "Hg1 mi
8:00 AM48 °FFog.3 mph100%29.83 "Hg0 mi
7:00 AM48 °FFog.6 mph100%29.83 "Hg0 mi
6:00 AM48 °FFog.5 mph100%29.82 "Hg0 mi
5:00 AM48 °FFog.6 mph100%29.80 "Hg1 mi
4:00 AM48 °FFog.6 mph100%29.82 "Hg4 mi
3:00 AM50 °FPartly cloudy.5 mph94%29.82 "Hg15 mi
2:00 AM52 °FOvercast.6 mph94%29.82 "Hg15 mi
1:00 AM52 °FOvercast.2 mph94%29.83 "Hg15 mi
12:00 AM52 °FOvercast.5 mph94%29.83 "Hg15 mi
11:00 PM
Tue, Oct 6
52 °FOvercast.5 mph94%29.84 "Hg15 mi
10:00 PM52 °FOvercast.6 mph94%29.85 "Hg15 mi
9:00 PM50 °FPassing clouds.5 mph94%29.85 "Hg15 mi
8:00 PM52 °FPassing clouds.8 mph94%29.85 "Hg15 mi
7:00 PM55 °FScattered clouds.6 mph82%29.85 "Hg15 mi
6:00 PM57 °FPartly sunny.6 mph82%29.85 "Hg15 mi
5:00 PM59 °FPartly sunny.9 mph77%29.85 "Hg15 mi
4:00 PM59 °FOvercast.8 mph77%29.87 "Hg15 mi
3:00 PM59 °FOvercast.6 mph77%29.88 "Hg15 mi
2:00 PM59 °FMore clouds than sun.8 mph77%29.89 "Hg15 mi
Weather by CustomWeather, © 2015

See weather overviewHow to use our weather pages